Content
SEND FEEDBACK

Daily
Averages
Monthly
Summary
United States of America

GLEN CANYON CITY, UTAH


Home > North America > United States > Utah
Elevation: 4133 feet     Latitude: 37 05N     Longitude: 111 40W

WEATHER
 
SELECT A DAY
Number of Records: 197,104;   Date Range: 1/1/95 - 10/16/14
 
SHARE

PRINT THIS DATA

[ ← Previous Day ]
WEATHER ALMANAC - JANUARY 21, 2013
[ Next Day → ]
[ °C ]   °F
Weather ElementAverageHighLow
Temperature32.1 °F44.1 °F (3:53 pm)21.2 °F (7:42 am)
Dewpoint16.1 °F19 °F (11:53 am)14 °F (7:42 am)
Humidity53.5 %74 % (7:42 am)32 % (3:53 pm)
Barometer30.37 in30.46 in (10:53 am)30.32 in (9:43 pm)
Wind Speed0.9 mph4.6 mph (10:53 am)
Weather ElementAverage
Visibility8.6 mi
Wind DirectionNNE (38.5 °)

Weather ElementTotal
Precipitation---
Heating Degree Days32.4 (Base 65)
Averaged from 26 records on January 21, 2013
WEATHER CONDITIONS BREAKOUT
WIND DIRECTION BREAKOUT
WEATHER BY HOUR - JANUARY 21, 2013
[ °C ]   °F
Local TimeTemperatureDewpointHumidityBarometerVisibilityWind DirectionWind SpeedGust SpeedPrecipitationEventsConditions
1:53 AM28.9 °F15.1 °F56 %30.34 in10.0 miCalmClear
2:53 AM27.0 °F15.1 °F61 %30.35 in10.0 miCalmClear
3:53 AM25.0 °F16.0 °F69 %30.36 in10.0 miCalmClear
4:53 AM24.1 °F15.1 °F69 %30.36 in10.0 miCalmClear
5:53 AM24.1 °F15.1 °F69 %30.39 in10.0 miCalmClear
6:53 AM23.0 °F15.1 °F72 %30.41 in6.0 miCalmHaze
7:42 AM21.2 °F14.0 °F74 %30.36 in2.5 miCalmHaze
7:50 AM21.2 °F14.0 °F74 %30.36 in8.0 miCalmClear
7:53 AM23.0 °F14.0 °F68 %30.42 in5.0 miCalmHaze
8:53 AM30.0 °F16.0 °F56 %30.43 in10.0 miCalmClear
9:53 AM32.0 °F17.1 °F54 %30.45 in10.0 miNorth (350°)3.5 mphClear
10:53 AM34.0 °F18.0 °F52 %30.46 in10.0 miNorth (360°)4.6 mphClear
11:53 AM37.9 °F19.0 °F47 %30.43 in10.0 miCalmClear
12:53 PM39.9 °F18.0 °F41 %30.40 in10.0 miCalmClear
1:53 PM42.1 °F18.0 °F38 %30.36 in10.0 miEast (90°)3.5 mphClear
2:53 PM42.1 °F17.1 °F37 %30.35 in10.0 miNNE (30°)4.6 mphClear
3:53 PM44.1 °F16.0 °F32 %30.33 in10.0 miNE (40°)3.5 mphClear
4:53 PM44.1 °F17.1 °F34 %30.33 in10.0 miCalmClear
5:53 PM39.0 °F17.1 °F41 %30.34 in10.0 miCalmClear
6:53 PM36.0 °F17.1 °F46 %30.36 in10.0 miCalmClear
7:53 PM36.0 °F15.1 °F43 %30.36 in10.0 miSE (130°)3.5 mphClear
8:53 PM33.1 °F16.0 °F50 %30.36 in4.0 miCalmHaze
9:43 PM32.0 °F15.8 °F51 %30.32 in2.0 miCalmHaze
9:53 PM33.1 °F17.1 °F52 %30.36 in6.0 miCalmHaze
10:53 PM30.9 °F15.1 °F52 %30.37 in10.0 miCalmClear
11:53 PM30.0 °F15.1 °F54 %30.36 in10.0 miCalmClear
Hourly data recorded from KPGA, located miles away from Glen Canyon City, Utah







STORIES FROM OUR PARTNERS